Location: Burgerwiesen
(48.6500°N, 15.6167°E)
Time: 02:16:46
(UTC+00:00)

BREEZE M DEB (TANK) - Pass Details

Date: 09 April 2020
Orbit: 303 x 11878 km, 49.5° (Epoch: 02 June)

Event Time Altitude Azimuth Distance (km) Brightness Sun altitude
Rises 19:16:48 0° 222° (SW) 2,302 5.6 -15.4°
Reaches altitude 10° 19:18:13 10° 214° (SW) 1,675 4.8 -15.6°
Maximum altitude 19:21:27 45° 139° (SE) 1,059 3.3 -16.1°
Drops below altitude 10° 19:30:13 10° 70° (ENE) 4,507 6.6 -17.3°
Sets 19:36:51 0° 67° (ENE) 7,149 7.7 -18.2°
